FLOCK 2K-41

Last updated on Feb. 14, 2018, 4:20 p.m. UTC

1 42875U 17042BC  18044.90103331  .00002182  00000-0  64499-4 0  9996
2 42875  96.9928 307.7821 0011965 179.2812 180.8452 15.35878036 32718
UTC
Height (km)
Latitude
Longitude
Inclination
Orbital Period
UTC large
Height (km)
Speed (km/s)
/
Latitude / Longitude
Inclination (degrees)
Orbital Period (minutes)
Azimuth
Elevation
Range (km)
Doppler Factor
iOS Compass Heading
iOS Angle